GFSSGP_850_temp_021.txt.gz
Temp
20 20 20 20 23 24 25 25 25 25 25 23 22 23 24 23 24 23 21 21 21 18 19 19 18 17 17 17 17 17 16 16 16 15 15 16 16 16 16 16 16 15 16 15 16 16 16 16 16
20 20 20 22 24 25 26 25 24 24 24 22 22 22 23 25 23 22 21 21 21 20 18 19 19 18 17 17 16 16 16 16 16 15 16 16 16 16 16 15 15 15 16 15 16 16 16 16 16
20 20 22 24 24 25 25 25 25 24 23 22 23 22 23 24 23 21 22 21 21 21 19 19 18 18 17 17 16 16 16 16 16 15 15 14 14 15 16 16 15 15 16 15 15 16 16 16 16
19 21 22 23 24 25 25 26 25 25 23 22 22 24 23 22 21 21 22 21 20 20 20 19 19 18 17 17 16 16 16 16 15 15 15 15 14 15 16 16 16 16 15 15 15 15 15 16 16
19 22 24 23 24 25 25 24 23 24 24 23 22 25 24 22 22 22 21 21 20 20 20 19 19 18 17 17 16 16 16 15 15 15 15 15 15 16 17 16 16 15 15 15 15 15 15 16 16
22 22 24 25 25 26 25 23 23 24 24 24 22 23 24 23 22 22 22 21 20 19 19 19 19 18 18 17 17 16 16 15 15 14 14 15 15 16 16 16 15 15 15 15 15 15 15 15 15
22 23 24 24 24 24 25 22 24 24 24 24 23 24 24 22 22 22 21 21 20 19 19 19 19 18 17 17 17 17 16 16 15 15 15 15 15 16 16 15 15 15 15 15 15 15 15 15 15
21 23 23 24 25 24 24 22 22 23 24 22 21 24 25 22 22 21 21 21 21 20 20 19 18 18 17 17 17 16 16 15 15 15 15 15 16 16 16 16 15 15 15 15 15 15 15 15 15
18 22 23 24 23 25 23 23 22 21 21 23 22 21 22 21 21 21 20 20 20 20 20 19 18 17 17 17 17 16 15 15 15 15 15 15 16 16 16 16 16 15 15 15 15 14 14 14 14
20 22 24 25 25 24 24 23 22 22 23 23 24 23 21 20 21 20 19 19 19 20 20 19 19 18 17 15 14 16 15 15 14 14 14 15 15 16 15 16 15 15 15 14 14 14 14 14 14
21 21 24 24 23 22 22 22 22 21 22 23 24 24 23 22 20 18 18 18 18 18 17 19 19 18 17 17 16 16 17 16 15 14 14 15 15 15 15 15 15 15 14 14 14 14 14 13 13
19 21 21 21 21 19 20 21 21 21 21 22 22 22 21 21 20 20 20 19 18 18 17 18 19 19 18 17 16 16 16 16 15 14 13 14 14 15 15 15 15 14 14 14 14 13 13 13 13
19 20 21 20 20 19 18 19 20 20 21 21 21 21 21 20 20 20 19 19 19 19 19 19 19 19 19 18 17 17 16 15 15 14 14 15 15 15 15 15 15 15 15 14 14 14 13 13 13
21 19 19 19 19 19 18 19 20 21 22 22 21 21 22 21 21 20 19 19 20 21 20 19 19 19 18 18 18 18 17 15 15 14 15 15 15 15 15 15 15 14 14 14 14 13 13 13 12
17 18 20 21 21 21 18 19 20 21 22 21 21 21 22 22 21 20 20 20 19 19 20 20 20 19 19 19 18 17 17 16 14 14 14 15 15 15 14 14 14 14 14 13 13 13 12 12 12
18 19 18 22 19 19 17 19 22 21 20 20 21 21 21 21 21 21 20 19 19 17 16 17 18 18 19 19 19 18 16 15 14 13 13 14 14 14 14 14 14 14 14 14 13 13 12 11 11
20 19 20 21 22 19 17 19 21 20 20 19 20 20 20 20 20 20 18 17 17 16 16 16 15 16 16 16 15 15 15 14 14 13 12 13 14 13 13 13 13 13 14 13 13 12 12 11 11
20 21 21 20 22 21 20 19 20 20 20 20 20 20 20 19 19 16 14 13 14 14 14 14 14 13 14 14 14 12 12 12 11 11 10 11 12 12 12 12 12 12 13 12 12 12 11 11 11
19 19 19 20 20 19 19 18 19 20 20 20 21 21 21 19 16 13 12 13 13 15 15 15 15 14 13 12 11 11 11 10 10 9 8 8 9 11 11 11 11 12 12 12 12 11 11 10 10
17 17 18 19 20 19 18 17 18 19 20 21 20 20 19 17 14 11 12 14 15 14 15 15 15 13 11 12 10 9 9 9 8 7 8 7 8 9 10 10 11 11 11 11 11 10 10 9 10
18 17 18 17 18 17 17 17 20 20 21 21 20 17 14 13 11 9 8 11 13 14 14 12 12 12 11 10 8 8 9 7 7 6 6 6 6 6 8 9 10 11 11 11 11 10 10 10 10
16 18 16 16 15 16 17 15 18 20 21 20 18 15 12 10 8 7 6 9 11 11 11 11 12 11 11 10 9 8 6 6 6 6 5 5 6 6 6 7 8 9 10 10 10 10 10 9 9
17 14 15 15 15 15 17 16 19 21 19 18 15 12 9 8 7 6 5 7 8 9 10 10 11 12 12 10 8 7 6 6 5 5 5 5 5 6 7 6 5 5 7 9 10 10 10 9 8
14 14 15 15 15 14 18 17 18 19 18 17 13 10 9 7 6 5 5 5 6 7 7 7 8 8 9 9 9 7 6 6 5 4 4 4 6 6 6 6 5 4 5 6 8 9 9 9 9
13 14 14 15 15 15 17 15 17 18 18 16 12 9 7 6 6 5 4 3 2 2 4 7 8 9 8 7 7 7 7 6 5 5 4 3 3 3 5 5 5 5 4 4 5 7 8 9 8
15 15 14 12 14 15 15 15 17 18 13 11 9 8 6 5 4 4 3 3 2 3 5 6 6 7 7 7 6 6 6 6 5 5 5 5 3 3 3 3 4 5 4 3 3 4 6 7 7
15 13 15 12 11 11 14 16 18 17 12 10 9 7 6 5 4 3 3 2 1 1 1 2 4 4 5 5 5 5 5 5 4 5 4 4 3 3 4 3 3 3 3 3 3 3 4 6 7
13 12 12 12 9 10 13 14 16 16 14 10 8 6 5 4 4 3 2 1 1 1 1 2 2 3 3 3 4 3 4 4 4 4 4 4 4 3 3 4 3 3 2 2 3 3 3 4 5
13 11 12 12 11 10 10 13 12 11 11 8 6 4 3 3 2 2 1 0 0 1 1 2 2 2 2 2 2 2 2 2 2 3 3 3 3 3 3 3 3 3 2 2 1 1 2 3 3
12 11 11 10 9 10 10 9 11 8 6 5 4 3 2 1 1 1 1 -0 0 1 2 1 1 1 0 0 0 1 1 1 1 1 2 2 3 2 2 3 3 2 2 2 1 1 1 1 1

GFSSGP_850_temp_024.txt.gz
Temp
21 21 21 20 19 20 22 22 25 23 23 23 23 22 22 23 23 20 21 21 20 19 19 19 19 18 18 18 17 17 17 16 16 16 16 16 16 16 15 15 14 14 16 16 16 16 16 16 16
21 20 20 21 20 21 21 25 22 23 23 22 23 23 23 24 23 22 21 21 20 20 21 19 19 18 18 18 17 17 17 16 16 15 15 15 15 15 15 14 13 15 15 15 15 15 15 15 15
20 20 21 20 21 21 22 25 24 25 24 23 23 23 23 24 23 21 21 21 21 20 21 20 19 18 18 17 17 17 17 16 16 15 14 14 15 15 15 15 14 15 15 15 15 15 15 16 16
19 20 21 20 23 24 24 23 24 24 23 22 23 21 23 23 23 22 22 21 21 21 20 20 19 19 18 17 17 16 16 16 16 14 15 14 14 15 16 15 16 15 15 14 15 15 15 16 16
20 21 20 21 23 25 25 25 24 23 24 24 23 23 24 23 23 22 22 21 20 20 19 20 20 18 17 17 17 17 16 16 15 15 14 15 15 15 16 16 16 16 15 15 15 15 16 16 16
21 22 20 21 22 24 24 23 23 24 24 23 22 23 24 23 23 22 22 21 21 20 19 19 19 19 18 17 16 16 16 16 15 15 14 15 15 15 17 16 16 16 15 15 15 16 16 16 16
21 20 20 22 22 24 24 23 24 23 24 24 23 22 23 22 22 22 21 21 20 19 19 19 19 19 18 17 17 16 16 16 15 15 15 14 15 15 16 16 16 16 16 16 16 16 16 15 15
20 21 22 23 22 22 23 23 23 23 22 23 22 21 22 22 22 21 21 21 20 19 19 19 19 19 19 18 18 17 16 16 15 14 15 15 15 15 16 16 16 16 16 16 16 15 15 15 15
19 18 19 21 23 24 23 23 22 22 22 22 22 22 23 22 22 21 21 21 20 19 19 20 19 19 18 18 18 17 17 16 15 14 14 14 14 15 16 16 16 16 16 16 16 15 15 15 15
19 18 21 23 23 21 23 23 22 22 22 22 23 23 24 22 22 22 21 20 19 19 20 19 19 19 19 18 17 17 17 16 15 15 14 14 14 14 15 16 16 16 16 15 15 15 15 15 15
20 18 21 21 22 21 20 20 21 21 18 21 22 22 22 22 22 21 21 20 19 18 18 19 19 18 17 17 17 17 17 16 15 15 15 14 14 14 14 16 16 16 16 15 15 15 14 14 14
19 20 21 21 21 20 19 19 19 20 21 21 21 21 21 21 21 21 20 20 20 19 18 18 18 17 17 16 16 16 16 16 15 15 14 14 14 15 15 16 16 16 15 15 15 14 14 14 14
19 19 20 20 20 20 20 18 17 19 20 20 21 21 21 21 21 21 21 20 20 19 19 18 18 18 18 17 16 15 15 17 16 15 14 14 14 15 15 15 15 15 15 15 15 14 14 14 13
20 18 18 19 19 19 19 18 19 20 20 21 21 22 21 21 22 22 21 21 20 20 20 19 17 18 17 18 17 17 16 15 16 15 14 14 14 14 15 14 14 15 15 14 15 14 14 13 13
18 16 17 19 20 19 19 16 17 21 21 21 21 21 21 21 21 21 21 21 20 19 19 18 17 16 17 17 17 16 16 15 14 14 14 13 13 13 14 14 14 14 14 14 14 14 13 13 13
17 16 15 19 20 17 18 15 18 21 20 20 20 20 20 20 20 19 19 19 18 18 17 17 17 16 15 15 15 15 14 13 12 12 12 12 13 13 13 13 13 13 14 14 14 13 13 13 13
16 15 17 18 21 16 16 16 19 20 20 19 20 20 20 20 17 16 17 17 17 17 16 16 15 15 15 14 13 12 12 11 11 11 11 11 11 11 11 12 12 12 13 13 13 13 13 12 12
16 16 17 16 18 18 16 15 17 19 19 19 20 20 20 15 13 14 15 13 13 14 15 15 15 14 13 13 12 11 10 10 10 10 10 10 9 10 10 10 10 11 12 12 13 13 12 12 12
16 16 15 16 18 16 16 16 16 18 18 18 18 20 15 13 12 12 11 11 12 12 14 14 13 13 12 12 11 10 10 9 9 9 9 9 9 9 9 9 9 9 10 12 12 12 11 11 10
15 14 14 16 17 16 15 14 16 17 17 19 19 16 13 11 11 11 11 11 12 13 12 13 13 12 11 10 9 9 9 9 8 8 8 8 8 8 7 7 7 8 8 9 10 11 11 10 10
15 14 15 15 15 15 15 14 15 17 19 15 14 12 10 9 9 9 10 11 11 12 13 13 13 12 11 9 9 9 9 9 8 8 7 7 7 7 6 6 6 6 7 7 8 10 10 10 10
14 16 16 14 14 13 14 12 16 16 16 13 11 10 9 8 7 7 7 8 9 9 10 10 10 11 11 10 9 7 7 7 7 6 6 6 6 5 5 5 5 5 6 6 7 8 9 9 9
15 13 14 14 12 11 13 11 16 16 14 11 10 9 8 6 6 5 6 6 6 7 9 9 9 7 7 7 8 8 8 7 6 6 5 5 6 5 5 4 4 4 4 4 5 6 7 7 9
13 13 13 12 12 9 14 14 14 15 13 11 10 9 7 6 5 4 4 6 7 7 7 7 7 8 7 7 7 6 7 8 7 6 5 5 5 5 5 4 3 3 3 3 3 4 5 6 7
12 12 9 10 8 9 13 12 14 16 13 12 9 8 6 5 4 4 5 6 6 6 6 6 6 6 6 5 5 5 5 5 6 6 5 5 4 3 2 4 4 4 3 2 2 2 3 4 5
12 13 9 8 8 10 12 9 13 13 11 10 8 6 5 4 4 3 3 3 3 3 3 4 5 5 5 5 5 4 5 5 5 5 5 4 4 4 3 2 2 3 3 3 1 1 1 2 3
13 11 13 9 6 6 10 13 14 11 8 8 7 6 5 4 4 3 2 2 1 1 1 2 2 3 3 3 3 3 4 4 4 4 4 3 3 4 4 3 3 2 2 2 2 1 0 0 1
12 11 10 9 8 6 10 11 12 10 8 7 5 5 4 4 3 2 2 1 1 0 0 1 1 1 1 2 2 2 2 2 3 3 3 3 3 3 3 3 3 3 3 2 1 1 1 -0 -0
10 10 10 10 8 7 8 9 9 7 7 5 4 4 3 3 2 2 2 1 0 0 0 0 1 1 1 1 1 1 1 1 1 2 2 2 2 2 2 2 2 2 2 2 1 1 0 -0 -0
9 9 9 7 7 8 9 9 7 6 5 5 4 4 3 2 1 1 1 -0 -0 -0 0 -0 -0 0 0 -0 -1 0 0 0 0 -0 -0 0 1 1 1 1 1 1 1 1 1 1 0 -0 -1

GFSSGP_850_temp_027.txt.gz
Temp
21 21 21 20 16 14 17 21 20 20 21 22 22 22 21 21 21 19 21 20 19 19 19 18 18 18 18 18 17 17 17 17 17 17 16 16 16 16 15 15 15 16 16 16 16 15 16 16 16
20 21 20 20 15 16 17 20 20 22 23 23 22 22 21 22 22 22 21 21 20 20 19 19 19 18 18 18 18 17 17 17 16 16 16 17 16 16 14 14 14 16 16 16 15 16 16 16 15
20 20 20 15 15 18 19 20 21 22 23 22 22 22 23 22 22 22 21 21 21 20 20 19 19 19 19 18 18 17 17 17 16 16 15 16 16 16 16 15 15 15 15 15 15 16 16 16 16
20 20 20 16 19 22 22 21 22 22 22 23 22 21 23 22 22 22 22 21 21 21 20 19 19 18 18 18 18 17 17 17 16 15 15 14 15 15 15 15 15 16 16 15 15 16 16 16 16
20 20 15 17 20 23 20 22 23 22 22 22 22 22 22 22 22 22 22 22 21 21 21 20 19 18 18 17 17 17 17 17 16 16 14 14 15 15 15 15 15 16 16 15 16 16 16 16 16
19 19 15 16 19 22 20 23 23 22 23 22 22 22 22 21 22 22 22 22 21 20 20 20 20 19 18 17 17 16 16 15 15 15 15 15 15 15 16 15 16 16 15 15 16 16 16 16 16
19 14 16 19 20 20 21 23 22 21 21 21 22 21 21 22 22 22 21 21 21 21 20 20 20 20 19 18 17 16 16 15 15 15 14 14 14 15 16 15 16 16 16 16 16 16 16 16 16
19 15 19 19 19 21 21 22 23 22 21 22 22 19 21 23 22 21 21 20 20 20 20 20 19 19 18 18 17 17 16 15 15 14 14 13 13 13 14 15 15 16 15 16 16 16 16 15 15
19 14 15 19 20 20 22 21 22 22 22 22 22 22 22 22 22 22 21 21 20 19 18 19 19 19 18 18 17 17 17 16 15 14 13 14 13 14 14 14 15 15 15 16 15 15 15 15 15
17 13 17 19 19 19 19 19 19 20 20 21 21 22 22 21 21 21 21 21 21 20 19 18 19 19 19 18 17 17 16 16 16 14 14 14 14 14 14 14 15 15 16 16 16 15 15 15 15
18 15 17 20 20 20 19 19 20 19 16 20 21 21 21 21 21 21 21 21 21 20 19 18 18 18 18 18 18 17 16 16 15 15 14 14 14 14 14 14 15 15 16 16 16 16 15 15 15
17 19 19 19 20 19 19 19 18 18 19 19 20 20 21 21 21 21 21 21 21 20 20 19 18 18 18 18 18 18 17 16 16 15 14 13 13 14 14 15 15 15 16 16 16 15 15 15 14
17 18 19 19 19 19 19 18 17 19 21 20 20 21 21 21 21 21 21 21 21 21 20 20 19 18 18 17 17 16 17 16 15 15 13 12 12 13 14 15 15 15 15 16 16 15 15 14 14
17 17 17 18 19 18 17 17 18 20 21 20 21 21 20 20 19 20 20 20 19 19 19 19 19 19 18 17 16 15 15 15 15 14 14 13 12 12 13 14 14 14 14 15 15 15 14 14 14
17 16 14 16 17 16 18 16 16 20 20 20 21 21 20 18 18 18 18 19 18 18 19 18 18 17 17 16 16 15 14 13 13 13 13 12 12 12 12 13 13 13 13 14 14 14 14 14 14
16 15 14 16 18 17 17 15 16 21 20 20 20 19 18 16 16 15 16 17 17 17 17 17 16 16 16 16 15 14 13 13 12 12 12 12 11 11 11 11 12 12 12 13 14 14 14 13 13
13 13 14 15 17 15 16 14 17 20 19 19 19 18 15 14 13 13 14 16 16 17 16 15 16 15 14 14 14 13 13 12 11 11 11 12 11 11 11 10 10 10 11 12 12 13 13 13 13
13 13 14 14 16 16 14 12 13 18 19 17 17 14 12 11 10 11 13 13 13 14 13 13 14 14 14 13 12 11 11 11 10 10 11 10 10 10 10 10 9 9 9 10 10 10 11 12 11
15 14 13 13 15 14 14 13 13 16 17 15 14 10 9 9 9 11 12 12 12 13 13 13 13 12 12 12 11 11 10 10 9 9 9 9 9 9 9 9 9 9 9 9 9 9 9 10 10
14 13 12 13 15 15 13 13 13 14 14 15 11 9 8 8 9 10 11 11 11 11 11 12 12 11 12 11 10 9 9 9 9 9 9 8 8 8 8 8 8 8 8 7 7 8 8 9 8
14 13 12 13 13 13 13 11 13 14 11 9 9 8 7 7 6 7 8 8 9 9 10 10 11 11 10 9 9 9 8 8 8 8 8 7 7 7 7 7 7 6 6 6 7 7 7 8 8
12 13 13 14 12 11 13 9 13 13 10 8 7 6 6 6 6 6 7 7 7 8 9 9 10 10 10 10 10 8 7 8 7 6 6 6 6 6 6 5 5 5 5 4 5 5 6 6 6
12 13 13 13 11 11 11 9 10 10 9 7 6 6 5 5 5 5 6 6 6 7 8 8 9 9 9 8 9 8 8 6 6 6 6 5 5 5 5 5 4 4 4 3 3 3 4 4 5
12 13 12 11 9 8 10 10 10 12 10 7 6 5 5 5 5 6 6 6 6 7 7 8 8 8 7 8 7 7 7 7 7 6 5 5 4 4 3 3 3 3 3 3 2 2 3 3 3
12 10 8 8 6 8 10 10 11 12 10 8 4 4 4 4 5 5 5 5 6 6 6 7 7 7 6 6 6 6 5 6 6 5 5 5 4 3 3 2 3 3 3 2 2 2 1 2 2
10 11 7 7 7 7 10 9 11 6 5 4 4 4 4 4 4 4 4 5 6 5 5 4 4 4 5 5 5 4 4 4 3 3 3 3 3 3 3 2 2 2 3 3 2 2 1 1 1
12 10 11 8 1 4 8 10 7 6 5 4 4 4 4 3 3 4 4 4 5 5 4 4 3 3 3 3 2 2 3 3 3 2 2 2 2 2 2 2 2 2 2 2 2 2 2 1 0
11 11 8 6 5 4 7 9 9 6 4 4 3 4 4 4 4 4 4 3 3 2 2 2 1 1 2 2 2 2 2 1 1 2 2 2 1 1 1 2 2 2 1 2 2 1 1 1 1
9 9 9 8 7 5 5 8 8 6 4 3 3 4 5 4 4 3 2 1 1 0 0 0 0 0 -0 -0 -0 -0 0 0 -0 -0 0 1 1 0 -0 -0 0 1 1 1 1 1 1 0 0
9 8 8 6 6 4 7 9 7 4 4 5 4 5 5 4 3 2 1 0 0 0 0 -0 -0 -0 -0 -1 -1 -1 -1 -2 -2 -2 -2 -2 -1 -1 -1 -1 -0 0 -0 -0 -0 -0 0 0 0

GFSSGP_850_temp_030.txt.gz
Temp
20 20 21 20 16 14 17 20 20 21 21 22 22 21 21 21 20 18 21 20 20 19 19 18 18 18 18 18 18 18 17 17 17 17 16 16 16 16 16 16 16 16 16 16 16 16 16 16 16
20 20 20 20 14 15 16 18 21 21 22 22 22 22 21 21 22 22 21 21 20 19 19 18 18 18 18 18 18 18 17 17 17 17 16 16 16 16 15 16 16 16 16 16 15 16 16 16 16
20 20 20 13 12 16 17 19 20 21 22 22 22 22 21 22 22 21 21 21 21 20 19 18 18 18 18 18 18 18 17 17 17 17 16 16 16 16 15 15 15 15 16 15 15 15 15 16 16
20 20 19 15 19 20 19 19 20 20 22 22 22 21 22 22 22 22 22 21 21 20 20 19 18 18 17 17 17 17 17 17 16 16 15 15 15 15 15 15 14 15 16 15 15 15 16 16 16
20 19 14 16 17 20 20 21 22 21 21 22 21 21 21 21 22 22 21 22 21 21 20 19 19 18 18 17 17 17 16 16 16 15 15 15 15 15 15 14 15 15 16 15 15 15 15 16 16
19 18 14 16 18 19 20 21 22 21 20 21 21 21 21 22 22 22 22 21 21 21 20 20 19 18 18 17 17 17 16 16 16 15 15 14 14 14 14 14 15 15 16 15 15 15 15 16 16
17 12 15 17 18 20 20 21 21 21 20 21 22 20 21 22 22 21 21 21 20 20 20 19 19 18 18 17 17 16 16 16 15 15 15 14 14 14 14 14 15 15 15 15 15 15 15 16 16
19 14 18 17 17 20 20 21 21 21 20 21 22 19 21 21 21 21 21 20 20 20 20 19 19 18 18 18 17 16 16 15 15 15 15 14 14 14 14 14 15 15 15 16 15 15 15 15 15
18 13 14 18 18 19 20 18 21 21 21 20 21 21 21 21 21 20 20 20 20 20 20 20 19 18 17 17 17 17 16 16 14 14 14 14 13 14 14 14 15 15 15 15 15 15 15 15 15
16 12 15 18 19 18 19 19 19 19 19 21 20 21 20 20 20 20 20 21 21 20 20 19 19 18 17 17 16 17 15 14 13 13 13 13 13 13 14 14 14 14 15 15 15 15 15 15 15
16 14 15 18 18 18 18 18 19 18 16 20 20 19 19 20 20 20 20 21 21 20 19 19 19 19 18 18 17 16 15 15 14 14 13 12 13 13 12 13 13 14 15 15 16 15 15 15 15
17 17 18 19 19 18 17 18 18 18 20 20 19 19 19 20 20 19 20 20 19 19 19 19 19 19 18 18 18 17 16 15 14 14 14 12 13 13 12 13 12 13 14 15 15 15 15 15 15
16 16 18 18 19 18 18 17 17 18 20 20 20 20 19 19 20 19 19 20 20 20 20 19 18 18 18 17 17 17 16 16 15 15 14 12 12 12 12 12 14 13 13 14 14 15 15 15 15
16 16 17 18 18 17 16 16 17 20 20 20 20 18 18 18 18 18 19 19 19 19 19 19 19 18 18 17 17 16 16 15 15 14 14 13 12 12 12 12 12 13 13 12 13 13 14 14 14
17 15 14 16 16 16 17 16 15 20 19 19 18 17 18 18 16 16 16 16 17 17 18 19 19 18 17 17 16 15 15 14 13 13 12 12 12 11 11 11 11 11 11 11 11 12 13 13 13
15 14 13 16 16 17 16 14 16 20 20 19 16 16 15 14 13 13 14 14 15 16 16 17 18 18 17 16 15 14 13 13 12 12 11 11 11 11 11 10 11 11 11 10 10 11 12 12 12
12 13 12 14 16 16 16 14 16 19 18 16 15 12 11 10 11 12 12 14 14 14 14 14 15 16 15 15 14 13 12 12 11 11 11 11 11 10 10 10 11 10 10 10 10 10 10 11 11
13 12 12 13 15 15 14 12 12 17 16 14 13 9 9 9 8 9 10 11 11 12 12 12 13 14 14 14 13 12 11 11 10 10 10 10 10 10 10 10 10 10 9 10 9 10 10 10 10
13 13 12 12 13 13 12 12 13 15 15 12 8 7 6 6 7 8 9 10 10 11 11 11 11 12 12 12 11 11 10 10 9 9 9 9 9 10 10 10 9 9 9 9 8 8 8 9 9
12 12 11 12 12 14 12 12 12 12 10 9 7 6 5 5 7 7 8 10 10 10 10 11 11 11 11 10 10 9 9 9 9 8 9 9 9 8 8 9 9 8 8 8 7 7 7 7 7
12 12 12 12 12 12 12 11 12 8 7 7 5 5 5 5 6 6 8 8 9 10 10 10 10 10 10 9 8 8 8 8 8 8 8 7 7 7 7 7 7 7 7 6 6 6 6 6 6
11 12 12 12 11 11 12 9 10 10 6 5 4 4 4 4 5 5 6 7 7 7 8 9 9 9 9 9 9 9 8 8 7 6 6 7 7 6 6 6 6 5 5 5 5 5 4 4 5
12 12 13 13 11 10 10 9 9 7 7 4 3 3 4 4 4 5 5 6 6 7 8 8 8 9 8 8 8 7 7 6 5 6 6 6 6 6 6 5 5 4 4 3 3 3 3 3 4
12 12 9 7 7 7 9 9 9 10 9 4 3 3 3 3 3 4 5 6 7 7 8 8 9 8 8 8 8 7 7 6 6 5 5 5 5 5 5 5 4 4 4 3 2 2 2 2 2
10 9 8 7 6 8 8 7 9 6 7 5 2 3 3 4 5 5 6 6 7 7 7 8 8 8 8 8 7 7 6 5 5 5 5 4 4 4 3 3 4 4 4 3 3 2 1 1 1
9 9 7 7 6 7 7 9 9 3 3 4 4 4 4 4 5 5 6 5 6 6 6 6 6 6 6 5 4 4 4 3 3 2 3 3 3 2 2 2 2 2 3 3 3 2 2 1 0
10 9 10 7 -1 3 7 7 5 4 2 2 3 4 4 5 5 5 5 5 5 5 5 4 3 3 3 3 3 2 2 2 2 1 1 1 1 1 1 1 1 1 1 2 2 2 2 1 1
10 9 8 5 5 4 6 7 7 4 3 2 2 3 4 4 5 5 4 4 3 3 3 3 3 2 2 2 2 1 1 1 1 0 0 0 0 0 -0 -0 -0 -0 -0 0 1 1 1 1 1
8 8 8 7 5 4 3 6 7 5 4 3 3 5 5 5 5 4 3 3 3 3 2 2 1 1 1 1 1 1 1 0 0 -0 -0 -1 -1 -1 -1 -1 -1 -0 -1 -1 -1 -1 -0 -0 0
9 7 7 5 5 3 5 8 6 5 4 4 5 6 5 5 4 3 2 2 1 1 1 1 0 0 -0 -0 -1 -1 -1 -1 -1 -1 -1 -1 -1 -1 -2 -1 -1 -1 -1 -1 -1 -1 -1 -2 -1

GFSSGP_850_temp_033.txt.gz
Temp
20 20 20 20 16 13 16 19 18 20 20 21 21 20 20 20 19 17 21 21 20 19 19 17 17 17 17 17 17 18 17 17 17 17 16 16 16 16 16 16 16 15 16 16 16 16 16 16 16
20 20 20 20 14 15 15 17 20 20 21 21 21 21 20 20 21 21 21 21 20 19 19 18 17 17 17 17 17 17 17 17 17 17 17 16 16 16 16 16 16 16 15 15 15 15 15 15 15
20 20 20 12 11 15 16 18 19 20 21 21 21 21 21 21 21 21 21 21 21 20 19 19 18 17 17 17 16 16 17 17 17 16 16 16 16 16 15 15 15 15 15 15 15 15 15 15 15
20 20 18 14 19 18 19 19 19 20 21 21 21 20 21 21 21 21 21 21 21 20 19 19 18 18 17 17 17 17 16 16 16 16 16 16 15 15 15 15 14 15 15 15 15 15 15 15 15
20 19 13 15 17 17 19 20 20 20 20 21 21 20 21 21 21 21 21 21 21 20 19 19 18 17 17 17 17 16 16 16 16 16 15 15 15 15 14 14 14 14 15 15 15 15 15 15 15
19 17 14 16 18 18 18 20 20 20 20 21 21 20 21 21 21 21 21 21 21 20 19 19 19 18 17 17 17 17 16 16 16 16 15 15 15 14 14 14 14 14 15 15 15 15 15 15 16
16 12 14 16 17 19 19 20 20 19 19 21 21 19 21 21 21 21 21 21 20 20 20 19 18 18 17 17 17 16 16 16 15 15 15 15 14 14 14 14 14 15 15 15 15 15 15 16 16
18 13 16 16 16 19 19 20 20 20 20 20 21 18 20 21 21 20 20 20 20 20 20 20 19 18 17 17 16 16 15 15 15 15 14 14 14 14 13 13 14 14 15 15 15 15 15 15 15
18 12 13 17 18 18 19 18 20 20 20 20 20 20 20 20 20 20 20 20 20 20 20 19 19 18 18 17 17 16 15 14 14 14 14 14 14 13 13 13 13 13 14 14 15 15 15 15 15
16 11 15 16 17 18 18 18 18 19 19 19 19 19 19 19 19 19 19 19 19 18 18 18 18 18 17 17 17 16 15 14 14 13 12 13 13 13 13 13 13 13 13 14 14 15 15 15 15
15 14 14 17 18 18 17 17 18 17 16 19 19 18 19 18 18 19 19 18 19 19 18 18 17 17 17 17 17 16 15 14 13 13 13 12 12 12 12 12 13 13 13 14 14 14 14 14 14
16 16 17 18 17 17 17 18 18 17 19 19 18 18 18 18 19 19 19 19 20 20 19 19 18 18 17 16 16 16 15 15 14 13 13 13 11 12 12 12 12 11 12 12 13 14 14 14 14
15 16 17 18 18 17 17 16 16 18 20 18 18 17 18 18 17 18 17 17 18 19 20 20 19 19 18 17 16 16 15 15 14 13 13 12 11 12 12 11 11 12 11 11 12 12 13 13 13
16 16 16 17 18 16 15 15 16 20 20 18 17 17 17 16 16 15 16 17 16 16 18 19 19 19 18 17 17 16 15 14 14 13 13 12 12 11 11 11 11 11 11 11 11 11 11 12 12
16 15 13 15 16 15 16 15 14 20 18 17 16 16 16 16 13 14 14 15 16 16 16 17 18 18 18 17 16 15 14 14 13 12 12 12 11 11 11 11 10 10 10 10 10 10 11 11 12
14 13 13 15 15 16 16 14 16 19 17 15 14 12 12 12 12 12 12 13 14 14 15 14 15 17 17 16 15 14 13 12 12 11 11 11 12 11 11 11 10 10 10 11 10 9 10 10 11
10 12 12 13 15 15 15 14 15 18 16 13 9 9 9 10 10 11 11 11 11 12 12 12 13 15 15 15 14 12 11 11 11 11 11 11 11 11 11 11 10 10 10 10 10 10 9 9 9
12 11 11 12 15 14 14 12 12 16 14 10 7 6 7 8 7 8 9 10 10 10 10 11 12 12 13 13 12 11 11 11 11 10 10 10 10 10 10 10 10 10 10 11 10 9 8 8 8
13 11 12 12 13 13 12 11 12 13 8 5 5 5 5 5 5 7 8 8 9 10 11 11 11 11 11 12 12 11 10 9 9 9 9 9 9 10 9 9 9 9 9 9 9 9 8 8 7
11 12 11 11 11 12 11 11 11 6 5 5 4 4 4 4 6 6 8 9 10 9 10 10 11 11 11 11 10 9 8 8 8 8 8 8 8 8 8 8 8 8 8 7 7 7 7 6 6
11 10 11 11 11 11 11 10 11 5 4 4 4 4 4 4 5 6 7 7 8 9 9 10 10 9 9 9 9 8 8 7 7 7 7 7 7 7 7 7 7 7 7 7 7 6 5 5 5
11 10 11 12 11 10 11 9 9 6 4 3 3 3 4 4 5 6 6 7 8 8 8 9 9 10 9 9 9 9 9 8 6 6 6 6 6 6 6 6 6 6 6 5 5 5 5 4 4
11 10 11 12 10 9 9 9 8 5 5 2 2 2 3 4 5 6 6 7 7 7 8 8 9 9 9 9 9 9 9 7 6 6 6 5 5 5 5 5 5 5 4 4 4 4 4 4 4
10 10 8 6 7 7 8 9 8 7 8 3 2 2 3 4 4 5 6 6 7 7 7 8 8 8 8 8 8 9 8 7 7 7 6 5 4 4 4 3 3 3 3 3 3 2 2 2 2
10 9 8 7 6 8 7 7 8 5 3 4 2 2 3 4 5 5 5 6 6 7 7 7 7 7 7 7 7 7 6 5 5 4 4 4 3 3 2 2 2 2 2 2 2 2 2 1 1
8 9 7 7 6 7 7 7 9 3 2 3 4 4 3 4 5 5 5 5 6 6 6 5 5 5 5 5 5 4 4 3 3 3 2 2 2 2 2 2 2 1 1 1 1 1 1 1 0
9 8 9 6 -3 3 7 7 4 2 2 2 2 3 4 4 4 5 5 5 5 5 4 4 4 4 4 4 3 3 3 3 2 2 2 1 1 1 1 1 1 1 1 1 1 1 1 0 0
9 8 8 5 5 4 7 6 8 3 2 1 1 2 4 4 4 4 4 4 4 3 3 3 3 3 2 2 2 2 1 1 1 1 1 1 0 0 0 0 -0 -0 -0 -0 -0 -0 -0 -0 -0
8 8 7 7 5 4 3 7 5 5 3 2 2 4 5 5 5 4 4 4 3 3 2 2 2 2 1 1 1 0 0 0 -0 -0 -0 -0 -1 -1 -1 -1 -1 -1 -1 -1 -2 -2 -1 -1 -1
8 7 7 7 6 3 4 9 4 4 4 3 4 7 7 5 5 4 4 3 3 2 2 1 1 1 1 0 -0 -0 -1 -1 -1 -1 -1 -2 -1 -2 -2 -2 -1 -2 -2 -2 -2 -2 -2 -2 -2

GFSSGP_850_temp_036.txt.gz
Temp
20 20 20 20 16 13 15 18 17 19 19 20 20 20 19 20 19 17 21 20 20 19 19 18 18 17 17 17 17 17 17 17 17 17 17 16 16 15 15 15 15 15 15 15 15 15 15 15 16
20 20 20 19 14 14 15 16 19 19 20 20 20 20 20 19 21 21 21 20 20 19 19 18 18 17 17 17 17 17 17 17 17 16 16 16 16 16 16 16 15 15 15 15 15 15 15 15 15
20 20 20 11 10 14 16 17 18 19 20 20 20 20 20 20 21 21 21 21 20 20 19 18 18 18 18 17 17 17 17 17 16 16 16 16 16 15 15 16 15 15 15 15 15 15 15 15 15
20 20 18 14 18 18 18 18 18 19 20 20 20 20 20 21 21 21 21 21 20 20 19 18 18 18 18 17 17 17 17 16 16 16 16 16 15 15 14 15 15 15 15 15 15 15 15 15 15
20 19 13 15 16 17 17 18 19 19 19 20 20 20 21 20 21 21 21 21 20 20 19 18 17 17 17 17 16 16 16 16 16 16 16 15 15 15 15 14 15 15 15 15 15 15 15 15 15
19 17 13 15 17 17 17 18 19 18 19 20 20 20 20 20 20 20 20 20 20 20 19 19 18 17 17 16 16 16 15 15 15 15 15 15 15 14 14 14 14 14 15 16 15 15 15 15 15
15 11 14 15 16 18 18 18 19 19 19 20 20 19 21 20 20 20 20 20 20 20 19 19 18 18 17 16 16 15 15 15 15 15 15 14 14 14 14 14 13 13 14 15 15 15 15 15 15
18 12 15 15 15 18 18 19 19 19 19 20 20 18 19 19 19 20 19 19 19 19 19 18 17 17 16 16 16 16 15 15 15 14 14 14 14 14 14 14 13 13 14 14 15 15 15 15 15
18 11 13 17 15 18 17 17 18 19 19 20 20 19 18 18 19 19 19 18 18 18 18 18 18 17 16 16 15 15 15 15 14 14 14 14 14 13 13 13 13 13 13 14 15 14 15 15 15
15 11 14 15 17 17 17 17 18 18 18 18 18 19 18 18 18 18 18 18 18 18 17 17 16 16 16 15 15 15 14 13 13 13 12 13 13 13 12 12 12 12 12 12 13 14 14 14 14
14 14 14 17 17 17 16 17 17 17 16 17 17 18 18 18 18 18 18 18 19 19 18 18 18 17 16 16 15 15 14 13 13 13 12 12 12 12 12 11 11 12 11 11 12 12 13 14 14
16 15 16 17 17 17 16 17 17 16 17 16 16 17 17 17 18 18 18 18 18 18 18 18 18 18 17 16 16 15 14 14 13 12 12 12 12 12 11 11 11 11 11 11 11 11 12 13 13
15 15 16 17 16 16 16 16 16 17 16 16 16 16 16 16 16 15 15 15 16 17 18 18 18 18 18 17 16 15 14 14 13 13 12 12 12 11 11 11 11 11 10 10 11 11 11 11 12
15 15 15 17 16 16 15 15 16 15 16 17 16 16 14 13 14 14 15 15 15 15 16 17 17 18 18 17 16 14 13 13 13 12 12 11 11 11 11 11 10 10 11 10 10 10 10 10 11
15 14 12 14 15 15 15 16 13 16 16 16 15 14 13 12 12 13 13 14 14 14 15 15 16 17 17 17 15 13 12 12 12 12 11 11 11 11 11 11 11 11 11 10 10 10 9 9 9
14 12 13 15 14 15 15 14 16 16 15 12 12 11 11 11 11 10 11 11 12 12 13 13 14 15 16 15 15 13 12 11 11 11 11 11 11 11 11 11 11 11 11 10 10 11 10 10 9
10 12 12 12 14 14 15 14 15 14 14 9 8 8 9 8 9 9 10 10 11 11 11 12 12 13 14 13 13 12 11 11 11 10 11 10 10 10 11 10 10 10 10 11 10 10 10 10 10
11 11 11 12 14 13 13 12 12 11 12 6 6 6 7 8 8 8 9 10 10 10 11 11 11 11 11 11 11 10 10 10 10 10 10 10 10 10 10 10 10 10 10 10 10 9 9 9 8
12 11 12 12 12 13 11 10 11 7 6 4 4 5 5 6 6 7 8 9 10 11 11 11 11 11 10 11 11 10 10 9 9 8 9 9 9 9 9 9 9 9 9 9 9 8 8 7 7
12 11 10 10 11 11 11 10 7 5 4 4 4 4 4 5 6 7 8 9 9 10 10 11 11 11 11 11 10 10 9 9 8 7 7 7 8 8 8 8 7 7 7 7 7 7 7 6 6
9 9 10 11 11 11 11 9 7 3 3 3 3 3 4 5 5 6 7 8 8 9 10 10 10 10 10 10 10 10 9 8 8 8 8 8 7 7 7 7 7 7 7 7 6 6 5 5 5
10 9 10 11 10 9 10 9 9 5 3 2 2 3 4 4 5 5 6 7 8 8 9 9 9 9 9 9 10 10 10 10 8 8 7 7 7 7 6 6 6 6 6 5 5 5 4 5 4
11 9 9 10 9 9 9 8 7 4 4 2 1 2 3 4 5 5 6 7 7 7 8 8 8 9 8 9 9 9 9 8 6 6 5 5 5 5 4 4 4 4 4 4 4 4 3 3 2
8 9 7 5 6 6 8 9 8 6 6 2 2 2 3 4 5 5 6 6 7 7 7 7 7 8 8 8 8 8 7 6 6 5 5 4 3 3 3 3 3 2 2 2 2 2 2 1 1
9 9 8 7 6 7 6 7 8 7 4 4 2 2 3 3 4 5 6 6 6 6 6 6 6 7 6 6 6 6 6 6 5 4 4 3 3 3 3 2 2 2 1 1 1 1 1 1 1
8 9 7 7 6 7 6 7 8 3 2 3 4 4 3 4 4 4 4 5 5 5 5 5 5 5 5 5 5 4 4 4 4 3 3 2 2 2 1 1 1 1 0 0 0 -0 -0 -0 -0
8 8 8 6 -3 2 7 7 6 2 1 1 1 3 3 4 4 4 4 4 4 4 4 4 4 4 4 3 3 3 3 2 2 2 2 1 1 1 0 -0 -0 -0 -1 -0 -1 -1 -1 -1 -1
9 7 8 5 6 3 7 7 8 4 2 0 0 2 3 4 4 4 4 4 4 3 3 3 3 3 2 2 2 2 2 2 1 1 1 0 0 0 -0 -0 -1 -1 -1 -1 -1 -1 -1 -1 -1
7 8 6 7 5 5 4 7 5 5 2 1 1 3 4 5 5 4 4 3 3 3 3 3 2 2 2 1 1 1 1 0 0 -0 -1 -1 -1 -1 -1 -1 -1 -1 -1 -1 -1 -1 -1 -1 -1
7 7 7 8 6 2 4 8 3 4 3 3 3 5 5 5 5 4 4 4 3 3 3 2 2 1 1 0 0 0 -0 -0 -1 -1 -2 -2 -2 -2 -2 -2 -2 -2 -2 -2 -2 -2 -2 -2 -2

GFSSGP_850_temp_042.txt.gz
Temp
20 21 21 20 24 24 22 22 22 22 23 20 19 21 23 21 22 21 19 19 19 18 17 17 17 17 17 17 16 16 16 16 16 16 16 15 15 15 15 15 16 16 16 16 16 15 15 15 15
20 21 21 21 24 24 23 22 22 22 21 19 20 21 22 22 19 19 18 18 19 18 18 18 17 17 17 17 16 16 16 16 16 16 16 15 15 15 15 15 15 16 15 15 15 15 15 15 15
20 21 22 23 23 23 23 22 22 21 20 21 21 20 21 21 19 19 19 19 18 18 17 17 17 17 17 17 16 16 16 16 16 16 16 15 15 15 15 15 15 15 15 15 15 15 15 15 15
20 20 20 24 22 21 22 22 21 22 20 20 20 23 19 19 19 19 19 18 18 18 17 16 16 17 17 17 16 16 16 16 16 16 16 15 15 14 15 15 15 15 15 15 15 15 15 15 15
21 21 23 22 21 21 21 20 20 22 21 21 20 22 20 18 18 19 19 18 18 17 17 17 16 16 16 16 16 16 16 15 15 15 15 15 15 14 14 14 14 14 14 15 15 15 15 15 15
21 20 23 23 22 21 21 19 20 21 20 20 21 21 19 18 18 18 18 18 18 18 17 17 16 16 15 15 15 15 15 15 15 15 15 15 14 14 13 13 13 13 13 14 14 14 14 15 15
21 22 22 22 21 21 21 18 21 21 21 21 19 22 19 18 18 18 18 18 18 18 17 16 16 16 15 15 15 15 15 14 14 14 14 14 14 13 13 13 13 13 13 13 13 14 14 14 15
18 21 20 21 21 21 20 19 18 20 21 19 19 22 20 18 18 18 18 18 18 18 18 17 16 16 16 15 15 15 14 14 14 14 14 14 14 13 13 13 13 12 12 12 12 13 13 14 14
18 22 21 20 20 21 19 21 18 19 19 18 17 17 17 18 17 17 18 18 18 18 18 17 17 16 16 15 14 14 14 14 14 14 14 14 14 13 12 12 12 12 11 12 12 12 12 13 13
19 21 21 20 20 21 19 19 19 19 19 18 16 16 16 17 16 17 17 18 18 18 18 18 17 17 16 16 15 13 14 13 14 14 14 13 13 13 12 12 11 11 11 11 11 12 12 12 13
17 21 18 18 18 18 18 18 17 19 20 18 17 15 15 16 16 17 17 17 18 18 18 18 18 17 17 16 16 14 14 13 14 13 13 13 13 13 12 12 11 11 11 11 10 10 11 11 11
19 17 17 17 16 16 18 17 18 17 17 15 15 15 15 16 16 17 17 17 17 17 17 17 18 18 17 16 16 14 12 13 13 13 13 13 13 12 12 12 12 11 11 11 11 10 10 10 11
18 17 16 16 16 16 16 17 18 16 14 14 14 14 15 15 16 16 16 16 16 16 16 16 17 17 17 16 15 13 13 12 12 12 12 12 13 12 12 12 11 11 11 11 11 11 10 10 10
16 16 17 16 16 15 16 17 15 12 11 12 12 14 14 15 15 14 14 14 14 15 15 16 16 16 16 15 13 12 12 11 11 11 12 12 11 11 11 11 11 11 11 10 11 11 10 10 10
15 18 18 17 16 17 15 16 16 13 10 11 12 12 12 12 12 12 13 13 13 13 14 15 15 15 15 14 12 12 11 11 11 11 11 11 11 12 12 12 11 11 10 11 10 11 10 10 10
17 16 18 17 15 15 15 20 15 11 12 10 8 7 8 10 10 11 11 12 12 12 13 14 14 15 14 12 11 12 11 11 11 11 11 11 11 11 11 10 10 10 10 10 10 10 10 10 10
16 19 17 18 15 16 16 18 14 11 12 11 9 7 7 9 10 10 11 10 10 10 11 10 10 10 10 10 11 11 10 10 10 11 11 11 11 11 10 10 10 10 10 10 10 10 10 10 10
18 17 16 18 17 15 17 18 14 10 11 10 8 7 6 7 9 9 10 9 9 9 9 9 9 9 10 9 10 9 9 10 10 10 10 10 10 10 9 9 9 9 9 9 9 9 9 9 9
17 17 18 17 15 16 18 18 17 11 9 9 8 7 6 6 7 8 8 9 9 9 8 9 9 9 9 8 9 9 10 9 10 9 9 9 9 8 9 9 9 9 9 9 8 9 8 8 8
15 16 17 16 14 15 17 16 18 10 11 9 8 7 6 5 6 7 7 8 8 9 9 9 9 9 9 9 10 10 9 9 9 9 9 9 9 9 9 8 8 7 7 7 7 7 7 6 6
15 15 17 16 13 13 13 15 16 10 6 6 6 6 5 5 5 7 7 8 8 9 9 10 10 10 10 10 10 10 10 10 9 9 8 9 8 8 8 8 7 7 7 6 6 6 5 4 4
15 14 14 14 14 15 13 17 15 13 9 6 5 5 5 4 6 7 7 8 8 9 9 9 9 10 10 10 10 10 10 10 8 8 7 7 7 7 6 6 6 6 5 5 5 4 4 4 3
15 12 13 13 14 13 13 14 17 9 10 8 6 5 5 4 5 6 7 7 8 8 8 9 9 9 9 9 8 9 9 8 7 6 6 5 5 5 5 5 4 4 4 4 3 3 3 3 2
10 11 11 11 12 12 14 14 17 13 13 11 6 5 4 3 4 5 6 7 7 7 7 8 8 8 8 8 8 7 7 7 6 6 5 5 5 4 4 4 3 3 3 2 2 2 1 1 1
12 13 13 12 12 13 9 12 17 15 10 10 7 5 4 3 4 5 6 6 6 6 6 6 7 7 7 7 7 6 6 6 6 6 5 5 4 3 3 2 2 1 1 1 1 1 0 0 -0
11 14 14 12 12 14 7 12 15 9 6 5 7 5 4 3 4 5 6 6 6 6 6 6 6 6 6 6 6 6 5 5 5 4 3 3 2 2 1 1 0 0 -0 -0 -1 -1 -1 -1 -1
11 11 12 9 3 11 14 12 12 6 5 4 5 4 3 3 4 5 5 6 5 5 5 6 6 5 5 5 5 5 4 3 3 3 2 2 1 1 0 -0 -1 -1 -1 -1 -1 -1 -1 -1 -1
11 12 11 11 11 12 13 12 17 9 8 5 4 4 4 3 4 4 5 5 5 5 5 5 4 4 4 4 3 3 2 2 2 1 1 0 0 -0 -1 -1 -1 -1 -1 -1 -1 -1 -1 -1 -1
10 10 11 12 12 13 14 15 13 13 11 7 6 5 4 3 3 5 5 5 5 5 5 4 3 3 3 3 2 2 1 1 1 0 -0 -0 -1 -1 -1 -2 -2 -2 -2 -2 -2 -2 -2 -2 -2
12 13 12 13 9 9 10 14 8 9 9 8 7 5 4 3 4 5 5 5 5 4 4 3 3 2 2 2 1 1 1 0 -0 -1 -1 -1 -1 -2 -2 -2 -2 -2 -2 -2 -2 -2 -2 -2 -3

GFSSGP_850_temp_045.txt.gz
Temp
21 21 22 21 25 26 24 23 25 24 24 23 22 24 24 23 23 22 19 17 18 16 16 17 16 16 16 16 16 16 16 16 16 16 15 15 15 15 15 15 15 15 15 15 15 15 15 15 15
21 21 21 24 26 25 24 25 24 24 23 22 22 23 24 23 21 20 19 18 18 16 15 16 16 16 16 16 16 16 16 16 16 16 15 15 15 15 15 15 15 15 15 15 15 15 15 15 15
21 21 23 26 26 26 24 25 24 23 22 23 23 23 23 21 20 19 18 18 17 15 15 15 16 15 15 16 16 16 16 16 15 15 15 15 15 14 14 15 15 14 15 15 14 14 15 15 15
20 22 23 25 25 24 25 25 24 24 23 22 23 23 20 17 18 17 18 18 16 16 15 16 16 15 15 15 16 16 15 15 15 15 15 15 14 14 14 14 14 14 14 15 14 14 14 15 15
21 23 25 25 24 24 24 23 23 24 24 23 23 23 21 17 16 16 16 16 16 16 15 17 16 16 15 15 15 15 15 15 15 15 15 15 14 14 14 14 14 14 14 14 14 14 14 15 15
23 24 25 24 25 24 24 23 23 24 23 23 23 23 19 16 16 16 16 15 15 15 16 15 16 16 15 15 15 15 15 15 15 15 15 14 14 14 13 14 14 14 14 14 14 14 14 14 15
23 25 25 25 24 23 24 22 23 24 24 23 22 24 19 17 18 16 17 16 16 16 16 15 14 15 15 15 15 15 15 15 14 14 14 14 14 14 13 13 13 13 13 13 13 14 14 14 15
22 24 23 25 24 24 23 22 22 23 23 20 20 23 22 17 18 17 17 17 17 17 17 17 16 16 15 15 15 15 14 14 14 14 14 14 14 13 13 12 12 12 12 12 13 13 14 14 14
20 24 24 24 24 24 22 23 21 20 22 20 18 18 18 18 17 16 15 16 17 17 17 17 17 17 16 15 14 14 14 14 14 14 14 14 14 13 12 12 12 11 11 10 11 12 12 13 14
22 23 24 24 24 24 22 22 22 22 22 20 18 17 17 17 16 15 15 14 16 17 17 17 17 16 16 16 15 14 14 14 14 14 14 14 13 13 13 12 11 11 11 11 11 10 12 12 12
21 23 22 21 21 22 22 21 20 22 22 21 21 15 16 15 16 16 16 16 17 17 17 17 17 16 16 16 15 14 13 13 13 13 13 13 13 14 13 13 12 12 11 11 11 11 10 10 11
21 20 21 19 18 19 20 20 21 20 18 15 14 15 14 14 15 16 16 16 16 16 16 17 17 17 16 15 14 13 12 13 13 13 13 13 13 13 13 13 12 12 12 11 11 11 10 10 10
20 20 19 18 17 18 17 19 20 19 14 14 14 14 13 13 14 15 15 15 15 15 15 16 16 16 16 15 13 12 12 12 13 13 13 13 13 12 12 12 12 11 11 12 11 11 10 10 10
19 19 20 19 18 18 18 20 17 19 14 13 12 12 12 13 14 13 14 14 14 14 15 15 15 15 15 12 12 12 12 11 12 12 12 12 13 12 12 12 12 11 11 11 11 11 11 11 11
18 19 21 20 19 19 17 18 17 17 13 13 12 11 11 13 14 13 14 13 13 13 14 14 14 14 15 12 11 11 11 11 11 11 11 11 11 11 11 11 11 11 10 11 10 10 10 10 10
19 19 20 21 18 17 17 21 20 14 14 14 13 12 12 12 12 12 12 12 12 13 13 13 13 13 12 11 11 11 11 11 11 10 11 11 11 11 11 11 10 10 10 10 10 10 10 10 10
20 21 21 21 18 18 18 21 17 15 15 15 14 12 10 9 8 10 11 11 11 12 12 11 10 10 10 10 10 11 11 11 10 10 10 11 10 10 10 10 10 10 10 9 9 9 9 9 9
21 20 21 20 19 18 19 19 17 15 15 16 14 12 10 9 7 10 11 10 10 9 8 9 9 9 9 9 10 10 10 10 10 10 10 10 10 9 9 9 9 9 9 9 9 9 9 8 8
20 20 20 22 19 17 19 20 21 16 14 15 14 12 11 9 8 9 9 9 9 8 8 8 9 9 9 9 10 10 10 10 10 10 10 10 9 9 9 9 9 9 8 8 8 7 6 6 7
18 18 19 21 18 16 19 19 20 20 16 15 15 13 11 8 6 7 8 8 7 7 8 8 8 8 8 9 9 10 10 10 10 10 10 10 10 10 10 9 9 8 8 7 7 7 6 6 6
18 18 19 19 16 16 17 17 18 19 17 14 13 12 10 8 7 5 7 7 7 7 8 8 8 8 9 9 10 10 11 11 10 10 10 10 9 9 9 8 8 7 7 7 6 6 6 5 5
17 19 18 18 16 17 17 17 19 20 15 12 10 10 9 8 7 5 6 7 8 8 8 9 9 9 9 9 10 10 11 10 10 9 9 9 8 8 8 7 7 6 6 6 5 5 4 4 4
17 16 16 16 16 16 17 14 18 18 16 13 10 9 9 7 6 5 6 7 8 8 9 9 9 10 10 10 10 10 10 9 9 8 7 7 6 6 6 5 5 4 4 4 3 3 3 2 2
14 14 13 14 15 14 16 16 18 18 16 16 10 8 8 6 5 5 7 8 8 8 9 9 9 9 9 8 8 8 8 8 7 7 6 6 6 5 5 5 4 4 4 3 3 2 2 1 1
14 14 14 14 13 13 15 16 17 19 15 16 11 8 8 6 5 4 6 7 7 8 8 8 8 8 8 8 7 7 7 6 6 6 6 5 5 4 4 4 3 3 2 2 1 1 1 0 0
12 15 15 13 14 15 10 13 17 15 13 10 11 9 7 6 5 4 6 6 7 7 8 8 7 7 7 7 6 6 6 6 5 5 5 4 4 3 3 2 2 1 1 1 0 -0 -0 -0 -1
13 13 16 12 7 11 15 15 16 9 8 8 10 8 7 5 4 4 5 6 7 7 7 7 6 6 6 6 6 6 6 5 5 4 4 3 3 2 2 1 1 0 -0 -0 -1 -1 -1 -1 -1
13 14 11 12 11 13 16 16 17 9 10 8 9 8 6 5 4 4 5 6 6 6 6 6 5 5 5 5 5 5 4 4 3 3 2 2 2 1 0 -0 -1 -1 -1 -1 -2 -2 -2 -2 -2
11 12 13 14 13 14 15 17 17 16 13 9 8 7 6 5 4 4 5 6 6 6 5 5 5 5 5 4 4 4 4 3 2 2 2 1 0 -0 -1 -1 -1 -2 -2 -2 -2 -2 -2 -2 -2
15 14 13 13 11 12 12 16 12 14 15 11 8 7 6 5 4 4 4 5 5 5 5 5 5 5 4 4 4 3 2 2 2 1 1 0 -0 -1 -1 -1 -2 -2 -2 -3 -3 -3 -3 -3 -3

GFSSGP_850_temp_048.txt.gz
Temp
22 22 23 22 20 22 21 22 25 23 22 23 23 23 20 21 20 17 17 17 17 16 17 17 17 16 16 16 16 16 16 16 16 16 15 15 15 15 15 15 15 15 15 15 15 15 15 15 15
22 22 22 23 21 21 21 23 22 22 23 23 23 23 22 19 20 18 18 17 17 16 16 16 16 16 16 16 16 16 15 16 15 15 15 15 15 15 15 15 15 15 15 15 15 15 15 15 15
22 22 22 21 22 21 21 23 21 23 23 23 23 23 21 19 19 17 17 16 16 15 16 15 15 15 15 16 16 16 15 15 15 15 15 14 14 14 14 15 14 14 15 15 15 15 15 15 15
21 22 23 21 22 23 23 22 24 23 23 23 23 19 18 17 18 18 17 16 16 15 15 15 15 15 15 15 15 15 15 15 15 15 15 15 14 14 14 14 14 14 14 14 15 15 15 15 15
22 23 21 23 22 23 22 24 24 23 24 23 23 19 18 16 16 16 17 16 15 15 15 15 15 15 15 15 15 15 15 15 15 15 15 14 14 14 14 13 14 14 14 14 14 15 15 15 15
22 24 21 22 23 23 23 23 23 24 24 23 23 20 17 16 16 16 16 16 15 15 14 15 15 15 15 15 15 14 14 14 15 14 14 14 14 13 13 13 13 13 13 13 13 14 14 15 15
22 21 21 23 21 22 22 23 23 24 23 22 22 19 17 17 16 16 16 17 16 16 15 14 15 15 15 15 15 15 14 14 14 14 14 14 14 14 13 13 13 13 13 12 12 13 13 14 14
21 21 23 24 22 22 22 23 22 23 20 21 21 19 17 17 17 17 17 17 17 17 17 17 15 14 15 15 14 14 15 14 14 14 14 14 14 13 13 12 12 11 12 12 12 12 13 13 14
20 19 20 23 23 22 22 22 21 21 21 20 19 18 17 17 17 15 16 16 17 17 16 16 16 17 16 15 14 14 14 13 14 14 14 14 13 13 13 12 12 11 11 10 10 11 12 12 13
21 19 21 22 23 22 22 22 21 21 21 19 17 17 17 17 15 15 15 14 15 16 16 16 16 16 16 15 14 14 14 14 13 14 14 13 13 13 13 12 12 11 11 10 10 10 11 10 11
21 20 21 21 21 21 22 21 21 21 20 19 19 16 16 16 15 15 15 15 15 15 16 16 16 16 16 16 15 13 13 13 13 13 13 13 13 12 12 12 13 12 12 11 11 11 11 10 10
19 21 21 20 19 20 20 21 20 20 17 17 17 16 15 15 15 16 15 15 16 16 16 17 16 16 16 15 15 12 13 13 13 13 13 12 12 12 12 11 12 12 12 12 11 11 10 10 10
19 20 20 19 18 18 19 19 20 19 18 17 16 16 15 15 15 15 15 16 16 15 16 16 16 16 15 13 12 12 12 12 12 12 12 12 12 12 12 12 12 11 11 10 11 11 11 11 11
19 19 20 19 18 18 17 19 19 19 17 16 14 14 14 15 15 15 15 15 15 15 15 15 15 16 15 14 12 12 11 12 12 12 12 12 12 12 13 12 12 12 11 11 10 10 10 11 10
18 18 18 19 19 18 18 16 16 18 16 14 13 13 13 14 14 14 15 15 14 14 14 15 15 15 14 12 12 11 11 11 11 11 12 12 12 12 12 12 11 12 11 10 10 10 10 10 10
18 18 18 20 19 17 17 16 19 17 15 14 13 12 12 12 12 13 14 13 14 13 14 14 14 13 12 11 11 11 11 11 11 10 11 11 11 11 11 11 11 11 11 11 11 10 10 10 10
17 16 17 17 18 16 15 17 16 15 15 15 14 13 12 11 12 13 13 12 12 12 12 12 11 11 10 10 10 10 11 11 10 10 10 10 10 10 10 11 11 10 11 10 10 10 10 10 9
17 17 18 18 16 17 15 14 15 15 15 16 15 14 12 11 10 12 11 11 10 10 8 8 9 9 9 9 10 10 10 10 10 10 10 10 10 10 9 10 10 9 10 10 9 9 10 9 10
18 18 17 19 17 17 15 16 17 15 15 15 16 14 12 11 9 10 10 9 8 7 8 8 8 8 9 9 10 10 10 10 10 10 10 10 10 9 9 9 9 9 9 9 9 8 9 9 9
17 16 16 18 15 16 16 15 17 16 15 15 16 15 13 10 9 8 9 8 6 7 8 8 8 8 9 9 9 10 10 9 10 10 10 10 10 10 9 9 9 9 8 8 7 7 7 7 7
16 16 16 16 16 15 14 13 15 16 18 15 15 15 13 11 9 7 8 8 6 7 7 8 8 8 9 9 9 9 9 9 9 9 10 9 9 9 9 8 8 8 8 7 7 6 6 5 5
15 17 16 16 15 13 14 12 16 16 15 14 15 14 12 10 8 7 7 8 7 6 7 7 7 8 9 9 9 10 11 11 9 9 9 9 9 9 8 8 7 7 6 6 5 4 4 4 4
15 15 16 16 13 13 13 12 15 16 16 13 11 12 11 9 8 7 7 8 8 7 7 7 8 8 9 9 10 10 10 10 9 9 8 8 7 7 7 6 6 5 5 4 4 3 3 3 2
13 14 14 14 13 10 13 13 14 16 15 15 12 11 11 9 7 6 5 7 8 8 8 8 8 9 9 9 10 10 10 9 9 8 7 7 6 6 6 5 5 5 4 4 3 3 3 2 2
14 13 11 10 9 10 14 12 15 16 15 15 11 10 10 8 7 5 6 7 8 8 8 8 9 9 9 9 9 9 9 8 8 7 6 6 5 5 5 5 4 4 3 3 2 2 1 1 0
11 13 10 10 10 10 9 10 13 10 11 13 13 9 9 7 6 5 6 8 8 8 9 9 9 9 9 9 8 8 8 7 7 6 6 5 5 4 4 3 3 2 2 1 1 0 -0 -0 -1
11 11 14 11 4 6 10 12 14 9 8 10 9 8 8 6 6 5 6 8 8 8 8 8 8 8 8 8 8 7 7 6 6 5 5 5 4 3 3 2 2 1 1 0 -0 -1 -1 -1 -1
12 12 10 9 8 8 11 11 13 9 8 7 8 8 7 6 5 5 6 7 8 8 8 7 7 8 7 7 7 6 6 6 5 5 4 3 3 2 2 1 1 0 -0 -1 -1 -1 -2 -2 -2
10 10 11 12 9 8 9 12 15 14 10 7 9 8 7 6 5 6 6 7 8 7 7 7 7 7 7 6 6 6 6 5 4 4 3 2 2 1 1 0 -0 -0 -1 -1 -2 -2 -2 -2 -3
12 11 11 11 10 9 8 14 13 12 10 9 9 8 7 6 5 5 5 6 7 7 6 6 6 6 6 6 5 5 5 4 3 3 2 2 1 1 0 -0 -1 -1 -1 -2 -2 -3 -3 -3 -3